#timestamp,LO_Frequency,Hit,StdDev 
1564477215.6,286047002.1,N
1564477235.5,286047001.6,N
1564477255.3,286047001.8,N
1564477275.1,286047001.8,N
1564477295.9,286047002.8,Y
1564477315.7,286046999.8,P
1564477335.5,286047002.3,N
1564477355.4,286047001.7,N
1564477375.2,286047000.1,N
1564477395.1,286046998.5,N
1564477396.0,286046998.5,N
1564477415.8,286047000.9,N
1564477435.6,286047000.7,N
1564477455.5,286047000.0,N
1564477475.3,286047001.0,N
1564477495.2,286047002.8,N
1564477515.9,286047002.8,N
1564477535.7,286046998.3,N
1564477555.6,286046999.1,N
1564477575.4,286046998.2,N
1564477595.2,286047000.7,N
1564477615.1,286046998.1,N
1564477616.0,286046998.1,N
1564477635.8,286046999.9,N
1564477655.2,286047000.9,N
1564477675.0,286046999.3,N
1564477675.9,286046999.3,N
1564477695.7,286046999.0,N
1564477715.6,286046998.3,N
1564477735.4,286046998.5,N
1564477755.3,286046998.8,N
1564477775.1,286046998.9,N
1564477776.0,286046998.9,N
1564477795.8,286046998.4,N
1564477815.7,286047000.6,N
1564477835.5,286046999.7,N
1564477855.4,286047002.7,N
1564477875.2,286047000.2,N
1564477895.0,286047000.4,N
1564477895.9,286047000.4,N
1564477915.8,286047002.7,N
1564477935.6,286047001.9,N
1564477955.4,286047002.2,N
1564477975.3,286047000.7,N
1564477995.1,286047000.9,N
1564478015.9,286047000.5,N
1564478035.7,286047000.3,N
1564478055.5,286047000.5,N
1564478075.4,286047000.1,N
1564478095.6,286047002.8,N
1564478115.5,286046999.7,N
1564478135.3,286047002.4,N
1564478155.2,286047002.8,N
1564478175.9,286047001.7,N
1564478195.7,286047004.1,N
1564478215.6,286047004.2,N
1564478235.4,286047001.9,N
1564478255.2,286047002.4,N
1564478275.1,286047002.6,N
1564478276.0,286047002.6,N
1564478295.8,286047001.7,N
1564478315.7,286047004.0,N
1564478335.5,286047001.9,N
1564478355.3,286047004.4,Y
1564478375.2,286046999.8,P
1564478395.0,286046999.9,N
1564478395.9,286046999.9,N
1564478415.8,286047002.7,Y
1564478435.6,286046999.9,P
1564478455.4,286047000.6,N
1564478475.3,286047000.6,N
1564478495.1,286047000.7,N
1564478515.9,286047000.8,N
1564478535.7,286047000.7,N
1564478555.5,286046999.8,N
1564478575.4,286046998.5,Y
1564478595.2,286046998.9,P
1564478615.0,286046998.6,N
1564478616.0,286046998.6,N
1564478635.8,286046998.7,N
1564478655.6,286046999.3,N
1564478675.5,286046998.4,N
1564478695.3,286046998.4,N
1564478715.1,286046996.6,Y
1564478735.9,286046998.7,P
1564478755.7,286046998.4,P
1564478775.6,286047011.9,P
1564478795.4,286046998.5,N
1564478815.2,286046999.2,N
1564478835.1,286046999.6,N
1564478836.0,286046999.6,N
1564478855.8,286046996.6,N
1564478875.6,286046996.6,N
1564478895.5,286046996.8,N
1564478915.3,286046997.4,N
1564478935.2,286046996.8,N
1564478955.9,286046997.3,N
1564478975.7,286046995.1,N
1564478995.6,286046995.2,N
1564479015.4,286046997.8,N
1564479035.3,286046997.6,N
1564479055.1,286046995.5,N
1564479056.0,286046995.5,N
1564479075.8,286046997.5,N
1564479095.7,286046995.4,N
1564479115.5,286046997.8,N
1564479135.3,286046995.0,N
1564479155.2,286046996.0,N
1564479175.0,286046995.7,N
1564479175.9,286046995.7,N
1564479195.8,286046995.1,N
1564479215.6,286046997.6,N
1564479235.4,286046995.0,N
1564479255.3,286046995.3,N
1564479275.1,286046995.4,N
1564479295.9,286046995.8,N
1564479315.7,286046997.5,N
1564479335.7,286046994.9,Y
1564479355.5,286046998.1,P
1564479375.3,286046999.2,N
1564479395.2,286046999.0,N
1564479415.0,286046998.4,N
1564479415.9,286046998.4,N
1564479435.7,286046998.7,N
1564479455.6,286046999.4,N
1564479475.4,286046998.2,N
1564479495.3,286046996.8,Y
1564479515.1,286047001.1,P
1564479516.0,286047001.1,N
1564479535.8,286046998.2,N
1564479555.7,286047001.1,N
1564479575.5,286046999.7,N
1564479595.3,286047001.1,N
1564479615.2,286046998.6,N
1564479635.0,286047002.6,N
1564479635.9,286047002.6,N
1564479655.8,286047000.8,N
1564479675.6,286047000.3,N
1564479695.4,286047000.3,N
1564479715.3,286047000.8,N
1564479735.6,286046999.4,N
1564479755.4,286046998.9,N
1564479775.3,286046998.3,N
1564479795.1,286046998.6,N
1564479796.0,286046998.6,N
1564479815.8,286046998.2,N
1564479835.7,286047000.8,N
1564479855.5,286047000.9,N
1564479875.3,286046999.9,N
1564479895.2,286047002.7,N
1564479915.0,286046999.9,N
1564479915.9,286046999.9,N
1564479935.8,286046998.4,N
1564479955.6,286046998.4,N
1564479975.4,286047000.1,N
1564479995.3,286047002.7,N
1564480015.1,286047000.5,N
1564480035.9,286047002.7,N
1564480055.7,286046998.1,N
1564480075.5,286047000.7,N
1564480095.4,286047000.6,N
1564480115.2,286047002.2,N
1564480135.0,286047001.9,N
1564480136.0,286047001.9,N
1564480155.8,286047004.4,N
1564480175.6,286047001.3,N
1564480195.5,286047001.7,N
1564480215.3,286047001.7,N
1564480235.1,286047003.7,N
1564480255.9,286047002.9,N
1564480275.7,286047005.8,Y
1564480295.6,286047003.6,P
1564480315.4,286047001.9,N
1564480335.2,286047001.4,N
1564480355.1,286047002.6,N
1564480356.0,286047002.6,N
1564480375.8,286047003.3,Y
1564480395.7,286047000.5,P
1564480415.5,286047000.8,N
1564480435.3,286047000.8,N
1564480455.2,286046998.6,N
1564480475.9,286046998.2,N
1564480495.7,286046999.1,N
1564480515.6,286046999.0,N
1564480535.4,286047001.1,N
1564480555.3,286047000.7,N
1564480575.1,286047002.7,N
1564480595.8,286047002.3,N
1564480615.7,286047001.8,N
1564480635.5,286047002.3,N
1564480655.4,286047002.7,N
1564480675.2,286047001.2,N
1564480695.0,286047000.1,N
1564480695.9,286047000.1,N
1564480715.8,286047000.3,N
1564480735.6,286047000.3,N
1564480755.4,286047000.1,N
1564480775.3,286047000.1,N
1564480795.1,286046999.8,N
